FENGYUN 1C DEB

Satellite information

Favourite Embed

Satellite Type and Status

DEBRISIN ORBIT

Key statistics

Satellite FENGYUN 1C DEB at a glance.

Uptime

9555

Days in orbit

Revolutions

≈ 14.4

Per day

Orbit

SSO

Sun Synchronous Orbit

Inclination

99.2

Latest

Satellite identification and parameters

Extended collection of information and parameters for FENGYUN 1C DEB.

Object identification

Identified? True

Debris? True

Object name: FENGYUN 1C DEB

International designator: 1999-025BZD

Object number (NORAD): 31562

Object ID (CCSDS): 31562

Country: PEOPLES REPUBLIC OF CHINA (PRC)

Current information (Y/N): Y

RCS size: SMALL

Orbital parameters

Period: 99.941 minutes

Inclination: 99.2438 deg

SMA: 7133.816 km

Apoapsis: 797.743 km

Periapsis: 713.62 km

RAAN: 321.8087 deg

Eccentricy: 0.0058961

Argument of periapsis: 43.4342 deg

Mean anomaly: 317.1467 deg

Mean motion: 14.40853694 rev/day

Mean motion (dot): 0.00001621 rev/day2

B* drag term: 0.00051109 1/REarth

Two-line elements (TLE)

Creation date: July 3, 2025, 3:40 a.m.

Reference frame: TEME

Reference center: EARTH

Epoch: July 2, 2025, 3:58 p.m. UTC

TLE line 0: 0 FENGYUN 1C DEB

TLE line 1: 1 31562U 99025BZD 25183.66589741 .00001621 00000-0 51109-3 0 9996

TLE line 2: 2 31562 99.2438 321.8087 0058961 43.4342 317.1467 14.40853694946419

Live tracking on map

Real-time ground track for satellite FENGYUN 1C DEB.

In-orbit conjunctions

A list of the most updated potential collisions computed for object FENGYUN 1C DEB.

Target Orbit TCA Probability of collision Miss distance Type
IRIDIUM 33 DEB LEO 2025-03-07 08:38:06 0.0001844425 66.0 (m) DEBRIS
COSMOS 1680 LEO 2024-07-12 20:15:43 0.0002837028 473.0 (m) PAYLOAD

Associated space launch

Chinese polar orbiting meteorological satellite

FENGYUN 1C DEB was lifted into orbit during the mission ‘Long March 4B | Feng Yun 1C’, on board a Long March 4B space rocket.

The launch took place on May 10, 1999, 1:33 a.m. from Launch Complex 7.

For more information about the launch, click the button.

Launch to space Long March 4B | Feng Yun 1C
Long March 4B | Feng Yun 1C

Agency: N/A

Status: Launch Successful

Launch date: May 10, 1999, 1:33 a.m. UTC

Rocket: Long March 4B

Launch pad: Launch Complex 7

Location: Taiyuan Satellite Launch Center, People's Republic of China

...

Latest news about this satellite

There are no fresh news available about this satellite. Check back as we update our databases every day.


Newsletter sign-up

Weekly statistics, charts and insights to help you stay on top of the space industry.